EW1898 Weather Reports


time (UTC)temp
F
wind
direction
speed
knots
gust
knots
rain 1hr
in
rain 24hr
in
rain mn
in
humidity
%
barometer
mb
20260510040100 48 282 0.0 0.0 0.00 0.38 0.00 98 1011.6
20260510034557 48 282 0.0 0.9 0.00 0.38 0.38 98 1011.9
20260510033059 48 282 0.0 0.9 0.00 0.38 0.38 98 1011.8
20260510031559 48 282 0.0 0.9 0.00 0.38 0.38 98 1012.1
20260510030056 48 282 0.0 0.0 0.00 0.38 0.38 98 1012.3
20260510024559 48 282 0.0 0.0 0.00 0.38 0.38 98 1012.5
20260510023052 48 282 0.0 0.9 0.00 0.38 0.38 98 1012.4
20260510021552 48 282 0.0 0.0 0.00 0.38 0.38 98 1012.6
20260510020054 47 282 0.0 0.0 0.00 0.38 0.38 98 1012.7
20260510014550 47 282 0.0 0.9 0.00 0.38 0.38 98 1012.6
20260510013103 47 282 0.0 0.0 0.01 0.38 0.38 98 1012.8
20260510011549 47 282 0.0 0.9 0.01 0.38 0.38 98 1012.6
20260510004557 46 174 0.0 1.7 0.02 0.38 0.38 97 1012.2
20260510003048 46 189 0.0 1.7 0.02 0.37 0.37 97 1012.2
20260510001547 46 208 0.0 0.0 0.03 0.37 0.37 97 1012.6
20260510000047 46 205 0.0 1.7 0.04 0.37 0.37 97 1012.6
20260509234600 46 210 0.0 0.9 0.04 0.36 0.36 97 1012.6
20260509233045 46 162 0.0 1.7 0.04 0.35 0.35 97 1012.4
20260509231546 46 210 0.0 0.0 0.04 0.34 0.34 97 1012.3
20260509230045 46 157 0.0 1.7 0.03 0.33 0.33 97 1012.1
20260509224545 46 251 0.0 2.6 0.03 0.32 0.32 97 1012.1
20260509223043 46 155 0.0 1.7 0.04 0.31 0.31 97 1012.2
20260509221601 46 179 0.0 1.7 0.07 0.30 0.30 97 1012.4
20260509220048 47 269 0.0 0.9 0.09 0.30 0.30 96 1012.6
20260509214540 47 258 0.0 0.9 0.14 0.28 0.28 96 1012.6
20260509213041 47 272 0.0 0.9 0.13 0.27 0.27 96 1012.7
20260509211539 47 252 0.0 0.9 0.10 0.23 0.23 96 1012.7
20260509210042 47 260 0.0 1.7 0.08 0.21 0.21 96 1012.7
20260509204538 47 227 0.0 0.9 0.02 0.15 0.15 96 1012.8
20260509203044 48 229 0.0 2.6 0.01 0.14 0.14 96 1012.6
20260509201536 48 198 0.0 0.0 0.00 0.13 0.13 96 1012.6
20260509200042 48 198 0.0 0.9 0.00 0.13 0.13 96 1012.7
20260509194536 48 215 0.0 1.7 0.00 0.13 0.13 96 1012.7
20260509193041 48 219 0.0 1.7 0.00 0.13 0.13 95 1012.6
20260509191534 48 201 0.0 2.6 0.00 0.13 0.13 96 1012.2
20260509190043 48 274 0.0 1.7 0.00 0.13 0.13 96 1012.6
20260509184534 48 173 0.0 3.5 0.01 0.13 0.13 96 1012.9
20260509183034 47 233 0.0 2.6 0.02 0.13 0.13 95 1013.0
20260509181524 47 231 0.0 0.9 0.03 0.13 0.13 96 1013.6
20260509180023 47 227 0.0 1.7 0.03 0.13 0.13 95 1013.4
20260509174526 47 250 0.0 0.9 0.02 0.12 0.12 95 1013.7
20260509173021 47 249 0.0 0.9 0.03 0.11 0.11 95 1013.7
20260509171523 47 208 0.0 0.9 0.02 0.10 0.10 95 1013.9
20260509170029 46 198 0.0 0.0 0.03 0.10 0.10 95 1014.1
20260509164518 46 197 0.0 0.0 0.04 0.10 0.10 95 1014.1
20260509163017 46 196 0.0 0.9 0.02 0.08 0.08 94 1014.2
20260509161517 45 190 0.0 0.9 0.03 0.08 0.08 94 1014.0
20260509160019 46 227 0.0 1.7 0.02 0.07 0.07 94 1013.9
20260509154516 46 267 0.0 0.9 0.02 0.06 0.06 93 1014.2
20260509153016 45 272 0.0 0.0 0.03 0.06 0.06 93 1014.5
20260509151515 45 272 0.0 0.0 0.02 0.05 0.05 93 1014.6
20260509150014 45 272 0.0 0.0 0.03 0.05 0.05 91 1014.8
20260509144513 45 272 0.0 0.0 0.03 0.04 0.04 92 1014.9
20260509143015 45 272 0.0 0.0 0.02 0.03 0.03 92 1015.1
20260509141520 45 272 0.0 0.0 0.03 0.03 0.03 92 1015.1
20260509140011 45 272 0.0 0.0 0.02 0.02 0.02 91 1015.0
20260509134511 44 272 0.0 0.0 0.01 0.01 0.01 90 1014.9
20260509133012 45 272 0.0 0.0 0.01 0.01 0.01 89 1014.6
20260509131515 45 272 0.0 0.0 0.00 0.00 0.00 87 1014.6
20260509130009 45 272 0.0 0.0 0.00 0.00 0.00 85 1014.7
20260509124510 46 272 0.0 0.0 0.00 0.00 0.00 83 1014.8
20260509123018 46 272 0.0 0.0 0.00 0.00 0.00 80 1014.9
20260509121503 45 272 0.0 0.0 0.00 0.00 0.00 79 1015.0
20260509120108 45 272 0.0 0.9 0.00 0.00 0.00 84 1015.0
20260509114611 43 272 0.0 1.7 0.00 0.00 0.00 86 1015.2
20260509113104 42 241 0.0 0.0 0.00 0.00 0.00 87 1014.8
20260509111558 42 241 0.0 0.9 0.00 0.00 0.00 88 1015.0
20260509110105 42 241 0.0 0.9 0.00 0.00 0.00 87 1014.9
20260509104600 40 290 0.0 0.0 0.00 0.00 0.00 87 1014.9
20260509103053 39 290 0.0 0.0 0.00 0.00 0.00 88 1014.8
20260509101552 39 290 0.0 0.0 0.00 0.00 0.00 88 1014.8
20260509100049 38 290 0.0 0.0 0.00 0.00 0.00 86 1014.6
20260509094548 39 290 0.0 0.0 0.00 0.00 0.00 86 1014.4
20260509093048 38 290 0.0 0.9 0.00 0.00 0.00 88 1014.3
20260509091545 38 290 0.0 0.0 0.00 0.00 0.00 87 1014.1
20260509090049 38 290 0.0 0.0 0.00 0.00 0.00 86 1014.1
20260509084542 38 290 0.0 0.0 0.00 0.00 0.00 85 1014.1
20260509083046 39 290 0.0 0.0 0.00 0.00 0.00 85 1013.8
20260509081543 39 290 0.0 0.0 0.00 0.00 0.00 84 1014.1
20260509080037 39 290 0.0 0.0 0.00 0.00 0.00 83 1014.0
20260509074538 39 290 0.0 0.0 0.00 0.00 0.00 83 1013.9
20260509073036 39 290 0.0 0.0 0.00 0.00 0.00 82 1013.9
20260509071532 40 290 0.0 0.0 0.00 0.00 0.00 81 1013.8
20260509070033 40 290 0.0 0.0 0.00 0.00 0.00 81 1013.8
20260509064532 40 290 0.0 0.0 0.00 0.00 0.00 80 1013.6
20260509063031 40 290 0.0 0.9 0.00 0.00 0.00 81 1013.5
20260509061529 40 290 0.0 0.0 0.00 0.00 0.00 81 1013.7
20260509060028 40 290 0.0 0.0 0.00 0.00 0.00 79 1013.7
20260509054538 40 290 0.0 0.0 0.00 0.00 0.00 77 1013.8
20260509053057 41 290 0.0 0.0 0.00 0.00 0.00 75 1013.7
20260509051524 42 290 0.0 0.0 0.00 0.00 0.00 74 1013.6
20260509050034 42 290 0.0 0.0 0.00 0.00 0.00 72 1013.6
20260509044614 43 290 0.0 0.0 0.00 0.00 0.00 72 1013.5
20260509043012 43 290 0.0 0.0 0.00 0.00 0.00 72 1013.6
20260509041510 43 290 0.0 0.0 0.00 0.00 0.00 70 1013.4